FW5754 Weather Reports


Display with metric or nautical units.
time (UTC)temp
F
wind
direction
speed
MPH
gust
MPH
rain 1hr
in
rain 24hr
in
rain mn
in
humidity
%
barometer
mb
20260902095530 64 88 0.0 4.0 0.00 0.14 0.00 86 1020.4
20260902095032 64 88 0.0 3.0 0.00 0.14 0.00 86 1020.4
20260902094558 64 88 0.0 5.0 0.00 0.14 0.00 86 1020.4
20260902094031 64 88 0.0 5.0 0.00 0.14 0.00 86 1020.3
20260902093532 64 88 2.0 5.0 0.00 0.14 0.00 86 1020.2
20260902093101 64 88 1.0 5.0 0.00 0.14 0.00 86 1020.2
20260902092531 64 0 0.0 5.0 0.00 0.14 0.00 86 1020.2
20260902092031 64 88 1.0 5.0 0.00 0.14 0.00 86 1020.1
20260902091549 64 0 1.0 5.0 0.00 0.14 0.00 86 1020.0
20260902091030 64 0 0.0 6.0 0.00 0.14 0.00 85 1020.0
20260902090531 64 88 1.0 7.0 0.00 0.14 0.00 85 1019.9
20260902090047 64 88 2.0 7.0 0.00 0.14 0.00 85 1019.8
20260902085530 64 88 1.0 3.0 0.00 0.22 0.00 85 1019.9
20260902085030 64 0 0.0 3.0 0.00 0.22 0.00 85 1020.1
20260902084547 64 88 0.0 3.0 0.00 0.22 0.00 85 1020.0
20260902084031 64 88 0.0 8.0 0.00 0.22 0.00 85 1020.1
20260902083535 64 0 2.0 8.0 0.00 0.22 0.00 85 1019.9
20260902083044 64 88 2.0 7.0 0.00 0.22 0.00 85 1019.8
20260902082531 64 0 1.0 5.0 0.00 0.22 0.00 85 1019.8
20260902082031 64 88 1.0 5.0 0.00 0.22 0.00 85 1019.8
20260902081550 64 88 1.0 5.0 0.00 0.22 0.00 85 1019.9
20260902081032 64 0 1.0 8.0 0.00 0.22 0.00 85 1019.8
20260902080530 64 88 0.0 8.0 0.00 0.22 0.00 85 1019.9
20260902080048 64 86 1.0 5.0 0.00 0.22 0.00 85 1019.8
20260902075533 64 85 1.0 4.0 0.00 0.31 0.00 85 1019.8
20260902075032 64 85 0.0 6.0 0.00 0.31 0.00 85 1019.8
20260902074556 64 0 0.0 7.0 0.00 0.31 0.00 85 1019.8
20260902074035 64 85 2.0 7.0 0.00 0.31 0.00 85 1019.8
20260902073531 64 0 1.0 7.0 0.00 0.31 0.00 86 1019.7
20260902073055 64 86 0.0 7.0 0.00 0.31 0.00 86 1019.6
20260902072531 64 86 1.0 7.0 0.00 0.31 0.00 86 1019.5
20260902072031 64 88 2.0 7.0 0.00 0.31 0.00 86 1019.4
20260902071552 65 88 0.0 7.0 0.00 0.31 0.00 85 1019.4
20260902071031 65 0 1.0 4.0 0.00 0.31 0.00 85 1019.4
20260902070530 65 88 0.0 4.0 0.00 0.31 0.00 85 1019.4
20260902070049 65 88 0.0 5.0 0.00 0.31 0.00 84 1019.3
20260902065531 65 0 0.0 5.0 0.00 0.31 0.00 83 1019.2
20260902065031 66 88 1.0 5.0 0.00 0.31 0.00 83 1019.1
20260902064548 66 88 1.0 5.0 0.00 0.31 0.00 81 1019.2
20260902064032 65 88 2.0 8.0 0.00 0.31 0.00 77 1019.3
20260902063531 65 0 0.0 9.0 0.00 0.31 0.00 77 1019.2
20260902063045 65 95 2.0 9.0 0.00 0.31 0.00 77 1019.1
20260902062536 65 98 2.0 10.0 0.00 0.31 0.00 78 1019.1
20260902062035 65 78 2.0 10.0 0.00 0.31 0.00 79 1019.1
20260902061600 65 96 3.0 9.0 0.00 0.31 0.00 80 1018.9
20260902061030 65 96 1.0 9.0 0.00 0.31 0.00 81 1019.2
20260902060530 65 96 1.0 9.0 0.00 0.31 0.00 81 1019.2
20260902060057 65 87 3.0 9.0 0.00 0.31 0.00 81 1019.2
20260902055531 65 92 1.0 9.0 0.00 0.31 0.00 81 1019.2
20260902055032 65 102 1.0 8.0 0.00 0.31 0.00 82 1019.3
20260902054605 65 102 2.0 8.0 0.00 0.31 0.00 82 1019.2
20260902054033 65 103 3.0 7.0 0.00 0.31 0.00 83 1019.3
20260902053533 65 101 2.0 6.0 0.00 0.31 0.00 83 1019.4
20260902053059 65 0 1.0 8.0 0.00 0.31 0.00 84 1019.4
20260902052531 65 0 2.0 8.0 0.00 0.31 0.00 85 1019.4
20260902052031 65 102 1.0 8.0 0.00 0.31 0.00 86 1019.3
20260902051550 65 101 2.0 6.0 0.00 0.31 0.00 87 1019.2
20260902051032 65 102 2.0 9.0 0.00 0.31 0.00 87 1019.2
20260902050530 65 102 3.0 9.0 0.00 0.31 0.00 88 1019.1
20260902050050 65 101 2.0 7.0 0.00 0.31 0.00 89 1019.0
20260902045529 65 101 2.0 8.0 0.00 0.31 0.00 89 1019.1
20260902045029 65 100 2.0 10.0 0.00 0.31 0.00 90 1019.0
20260902044549 65 99 2.0 10.0 0.00 0.31 0.00 91 1018.9
20260902044030 65 98 2.0 11.0 0.00 0.31 0.00 91 1018.8
20260902043530 65 0 1.0 11.0 0.00 0.31 0.00 92 1018.9
20260902043046 65 103 1.0 8.0 0.00 0.31 0.00 92 1018.7
20260902042530 65 0 2.0 8.0 0.00 0.31 0.00 92 1018.8
20260902042030 65 101 1.0 6.0 0.00 0.31 0.00 92 1018.8
20260902041553 65 101 1.0 7.0 0.00 0.31 0.00 92 1018.7
20260902041031 65 92 2.0 7.0 0.00 0.31 0.00 92 1018.7
20260902040535 65 105 2.0 6.0 0.00 0.31 0.00 92 1018.6
20260902040051 65 110 1.0 6.0 0.00 0.31 0.00 92 1018.6
20260902035535 65 0 1.0 9.0 0.00 0.31 0.31 92 1018.6
20260902035034 65 109 1.0 9.0 0.00 0.31 0.31 92 1018.7
20260902034601 65 78 2.0 7.0 0.00 0.31 0.31 92 1018.7
20260902034036 65 78 2.0 7.0 0.00 0.31 0.31 92 1018.9
20260902033535 65 0 1.0 13.0 0.00 0.31 0.31 91 1018.9
20260902033057 65 77 3.0 13.0 0.00 0.31 0.31 91 1018.9
20260902032532 65 81 2.0 8.0 0.00 0.31 0.31 91 1018.9
20260902032035 65 80 2.0 8.0 0.00 0.31 0.31 91 1018.7
20260902031554 65 79 0.0 12.0 0.00 0.31 0.31 90 1018.7
20260902031035 65 79 1.0 12.0 0.00 0.31 0.31 90 1018.7
20260902030535 65 78 3.0 12.0 0.00 0.31 0.31 90 1018.7
20260902030046 65 0 2.0 6.0 0.00 0.31 0.31 89 1018.7
20260902025535 65 62 2.0 8.0 0.00 0.31 0.31 89 1018.8
20260902025035 65 61 1.0 10.0 0.00 0.31 0.31 89 1018.8
20260902024557 65 125 3.0 11.0 0.00 0.31 0.31 89 1018.7
20260902024035 65 73 3.0 12.0 0.00 0.31 0.31 88 1018.5
20260902023534 65 98 4.0 12.0 0.00 0.31 0.31 88 1018.3
20260902023058 65 85 3.0 10.0 0.00 0.31 0.31 89 1018.2
20260902022534 65 77 4.0 9.0 0.00 0.31 0.31 89 1018.2
20260902022034 65 69 2.0 11.0 0.00 0.31 0.31 88 1018.0
20260902021550 65 68 3.0 11.0 0.00 0.31 0.31 88 1017.7
20260902021035 65 139 3.0 10.0 0.00 0.31 0.31 88 1017.9
20260902020537 65 107 5.0 11.0 0.00 0.31 0.31 88 1017.8
20260902020045 65 112 3.0 11.0 0.00 0.31 0.31 88 1017.9
20260902015536 65 0 3.0 11.0 0.00 0.31 0.31 87 1018.0
20260902015031 65 136 2.0 10.0 0.00 0.31 0.31 87 1017.8
20260902014553 65 158 2.0 15.0 0.00 0.31 0.31 87 1017.7
20260902014033 65 136 5.0 15.0 0.00 0.31 0.31 87 1017.5
20260902013535 65 100 4.0 14.0 0.00 0.31 0.31 87 1017.8
20260902013054 65 125 4.0 13.0 0.00 0.31 0.31 86 1017.7
20260902012534 65 89 5.0 13.0 0.00 0.31 0.31 86 1017.5
20260902012035 65 146 4.0 12.0 0.00 0.31 0.31 86 1017.6
20260902011546 65 126 5.0 17.0 0.00 0.31 0.31 87 1017.6
20260902011035 65 115 5.0 17.0 0.00 0.31 0.31 87 1017.4
20260902010535 64 69 4.0 18.0 0.00 0.31 0.31 87 1017.3
20260902010045 64 89 5.0 18.0 0.00 0.31 0.31 87 1016.9
20260902005554 64 107 7.0 17.0 0.00 0.31 0.31 87 1016.8
20260902005032 64 130 5.0 17.0 0.00 0.31 0.31 87 1017.0
20260902004546 64 85 6.0 14.0 0.00 0.31 0.31 87 1017.1
20260902004035 64 158 5.0 14.0 0.00 0.31 0.31 87 1017.0
20260902003534 65 140 5.0 14.0 0.00 0.31 0.31 87 1017.1
20260902003055 65 42 7.0 13.0 0.00 0.31 0.31 87 1017.1
20260902002533 65 109 4.0 16.0 0.00 0.31 0.31 87 1017.1
20260902002031 65 145 3.0 16.0 0.00 0.31 0.31 87 1017.1
20260902001601 65 80 5.0 15.0 0.00 0.31 0.31 88 1017.2
20260902001037 65 94 3.0 14.0 0.00 0.31 0.31 87 1017.2
20260902000534 65 150 5.0 15.0 0.00 0.31 0.31 87 1017.1
20260902000046 65 109 4.0 15.0 0.00 0.31 0.31 87 1017.2
20260901235535 65 167 5.0 14.0 0.00 0.31 0.31 87 1017.1
20260901235035 65 119 5.0 15.0 0.00 0.31 0.31 87 1017.2
20260901234543 65 117 5.0 18.0 0.00 0.31 0.31 86 1017.0
20260901234032 65 119 6.0 18.0 0.00 0.31 0.31 87 1016.9
20260901233534 65 105 6.0 16.0 0.00 0.31 0.31 87 1017.1
20260901233040 65 128 4.0 14.0 0.00 0.31 0.31 87 1017.0
20260901232531 65 103 4.0 12.0 0.00 0.31 0.31 88 1017.2
20260901232031 65 91 4.0 19.0 0.00 0.31 0.31 88 1017.1
20260901231547 65 115 5.0 19.0 0.00 0.31 0.31 87 1016.8
20260901231035 65 119 6.0 16.0 0.00 0.31 0.31 87 1016.8
20260901230535 65 65 7.0 15.0 0.00 0.31 0.31 88 1016.8
20260901230046 65 94 6.0 14.0 0.00 0.31 0.31 87 1016.8
20260901225535 65 145 4.0 16.0 0.00 0.31 0.31 88 1016.8
20260901225034 65 159 4.0 20.0 0.00 0.31 0.31 88 1016.7
20260901224545 65 136 6.0 20.0 0.00 0.31 0.31 88 1016.8
20260901224035 65 80 5.0 14.0 0.00 0.31 0.31 88 1016.8
20260901223534 65 121 6.0 17.0 0.00 0.31 0.31 88 1017.0
20260901223051 65 88 6.0 17.0 0.00 0.31 0.31 87 1016.8
20260901222538 66 86 6.0 15.0 0.00 0.31 0.31 87 1016.7
20260901222034 66 104 6.0 15.0 0.00 0.31 0.31 87 1016.6
20260901221559 67 72 3.0 11.0 0.00 0.31 0.31 87 1016.8
20260901221034 67 60 4.0 13.0 0.00 0.31 0.31 86 1016.7
20260901220535 67 108 4.0 13.0 0.00 0.31 0.31 85 1016.4
20260901220054 67 89 4.0 14.0 0.00 0.31 0.31 85 1016.6
20260901215535 67 99 6.0 15.0 0.00 0.31 0.31 86 1016.5
20260901215035 67 78 5.0 15.0 0.00 0.31 0.31 87 1016.6
20260901214544 67 113 4.0 16.0 0.00 0.31 0.31 88 1016.7
20260901214034 67 92 5.0 16.0 0.00 0.31 0.31 89 1016.8
20260901213534 67 113 4.0 12.0 0.00 0.31 0.31 90 1016.9
20260901213052 67 159 4.0 16.0 0.00 0.31 0.31 90 1016.7
20260901212535 67 96 4.0 16.0 0.00 0.31 0.31 90 1016.6
20260901212034 67 95 5.0 16.0 0.00 0.31 0.31 90 1016.6
20260901211547 68 102 6.0 15.0 0.00 0.31 0.31 90 1016.5
20260901211037 68 98 5.0 15.0 0.00 0.31 0.31 90 1016.5
20260901210534 68 100 3.0 15.0 0.00 0.31 0.31 89 1016.4
20260901210045 68 94 4.0 13.0 0.00 0.31 0.31 88 1016.3
20260901205535 68 81 4.0 13.0 0.00 0.31 0.31 87 1016.2
20260901205039 69 113 4.0 12.0 0.00 0.31 0.31 87 1016.2
20260901204555 69 77 4.0 11.0 0.00 0.31 0.31 88 1016.1
20260901204035 69 90 3.0 11.0 0.00 0.31 0.31 89 1016.1
20260901203534 69 92 1.0 9.0 0.00 0.31 0.31 90 1016.1
20260901203056 69 91 1.0 9.0 0.00 0.31 0.31 90 1015.9
20260901202534 69 90 2.0 9.0 0.00 0.31 0.31 90 1015.9
20260901202033 69 92 3.0 9.0 0.00 0.31 0.31 89 1015.9
20260901201548 69 91 3.0 9.0 0.00 0.31 0.31 90 1015.8
20260901201035 69 93 1.0 5.0 0.00 0.31 0.31 90 1015.8
20260901200533 70 93 1.0 7.0 0.00 0.31 0.31 90 1015.9
20260901200046 70 93 2.0 8.0 0.00 0.31 0.31 90 1015.9
20260901195534 70 93 2.0 8.0 0.00 0.31 0.31 90 1015.8
20260901195035 70 90 3.0 9.0 0.00 0.31 0.31 90 1015.8
20260901194557 70 107 3.0 9.0 0.00 0.31 0.31 90 1015.7
20260901194035 70 105 1.0 7.0 0.00 0.31 0.31 90 1015.7
20260901193534 71 0 2.0 7.0 0.00 0.31 0.31 90 1015.7
20260901193052 71 105 2.0 7.0 0.00 0.31 0.31 91 1015.6
20260901192533 71 104 2.0 6.0 0.00 0.31 0.31 91 1015.6
20260901192035 71 104 0.0 6.0 0.00 0.31 0.31 92 1015.6
20260901191558 70 0 0.0 6.0 0.00 0.31 0.31 91 1015.6
20260901191035 70 104 1.0 6.0 0.00 0.31 0.31 91 1015.6
20260901190533 70 104 1.0 6.0 0.00 0.31 0.31 91 1015.5
20260901190055 70 105 3.0 7.0 0.00 0.31 0.31 91 1015.4
20260901185535 70 103 2.0 8.0 0.00 0.31 0.31 90 1015.4
20260901185031 71 112 3.0 8.0 0.00 0.31 0.31 89 1015.5
20260901184550 71 0 1.0 8.0 0.00 0.31 0.31 89 1015.5
20260901184034 72 123 1.0 7.0 0.00 0.31 0.31 89 1015.7
20260901183537 73 138 0.0 7.0 0.00 0.31 0.31 90 1015.7
20260901183049 73 0 0.0 0.0 0.00 0.31 0.31 91 1015.7
20260901182531 73 0 0.0 5.0 0.00 0.31 0.31 91 1015.6
20260901182033 73 0 1.0 5.0 0.00 0.31 0.31 91 1015.7
20260901181552 73 138 2.0 5.0 0.00 0.31 0.31 91 1015.8
20260901181031 72 0 1.0 5.0 0.00 0.31 0.31 92 1015.6
20260901180532 72 138 2.0 7.0 0.00 0.31 0.31 91 1015.7
20260901180041 72 0 2.0 7.0 0.00 0.31 0.31 92 1015.9
20260901175534 72 138 2.0 5.0 0.00 0.31 0.31 92 1015.8
20260901175031 72 138 0.0 3.0 0.00 0.31 0.31 93 1015.8
20260901174551 71 138 1.0 3.0 0.00 0.31 0.31 92 1015.9
20260901174033 71 0 0.0 3.0 0.00 0.31 0.31 92 1015.9
20260901173534 71 138 0.0 4.0 0.01 0.31 0.31 92 1016.1
20260901173058 71 0 0.0 7.0 0.01 0.31 0.31 92 1016.0
20260901172532 71 138 1.0 7.0 0.01 0.31 0.31 92 1016.0
20260901172034 72 138 1.0 7.0 0.01 0.31 0.31 92 1016.1
20260901171601 72 138 1.0 7.0 0.01 0.31 0.31 92 1016.1
20260901171037 71 138 2.0 7.0 0.01 0.31 0.31 92 1015.9
20260901170535 71 138 0.0 5.0 0.01 0.31 0.31 92 1015.8
20260901170048 71 0 2.0 9.0 0.01 0.31 0.31 92 1015.8
20260901165531 71 0 2.0 9.0 0.01 0.31 0.31 92 1015.9
20260901165032 71 138 3.0 9.0 0.01 0.31 0.31 92 1016.0
20260901164547 71 138 3.0 8.0 0.01 0.31 0.31 92 1016.1
20260901164031 71 138 2.0 7.0 0.00 0.30 0.30 92 1016.1
20260901163536 71 138 2.0 8.0 0.00 0.30 0.30 92 1016.2
20260901163044 71 138 2.0 8.0 0.00 0.30 0.30 92 1016.3
20260901162531 71 138 2.0 8.0 0.00 0.30 0.30 92 1016.5
20260901162035 71 137 2.0 8.0 0.00 0.30 0.30 93 1016.5
20260901161607 71 137 2.0 8.0 0.00 0.30 0.30 93 1016.4
20260901161038 71 136 3.0 8.0 0.00 0.30 0.30 92 1016.3
20260901160534 71 136 2.0 7.0 0.00 0.30 0.30 93 1016.4
20260901160056 71 136 1.0 6.0 0.00 0.30 0.30 94 1016.6
20260901155533 71 136 2.0 7.0 0.00 0.30 0.30 93 1016.7
20260901155034 70 136 0.0 7.0 0.00 0.30 0.30 93 1016.9
20260901154555 70 136 3.0 8.0 0.00 0.30 0.30 93 1016.7
20260901154036 70 136 3.0 8.0 0.01 0.30 0.30 93 1016.5
20260901153535 71 134 1.0 7.0 0.03 0.30 0.30 93 1016.4
20260901153051 71 134 3.0 7.0 0.07 0.30 0.30 93 1016.5
20260901152531 71 134 2.0 6.0 0.07 0.30 0.30 93 1016.6
20260901152032 71 134 2.0 6.0 0.09 0.30 0.30 94 1016.6
20260901151553 71 134 2.0 7.0 0.10 0.30 0.30 94 1016.6
20260901151033 70 134 3.0 7.0 0.10 0.30 0.30 94 1016.6
20260901150528 70 134 1.0 7.0 0.10 0.30 0.30 94 1016.8
20260901150046 70 134 3.0 7.0 0.10 0.30 0.30 93 1017.0
20260901145531 70 134 2.0 4.0 0.10 0.30 0.30 94 1017.0
20260901145029 70 0 0.0 6.0 0.10 0.30 0.30 93 1017.2
20260901144550 70 134 0.0 6.0 0.10 0.30 0.30 93 1017.2
20260901144032 70 134 1.0 8.0 0.09 0.29 0.29 93 1017.2
20260901143531 70 134 2.0 8.0 0.06 0.26 0.26 93 1017.3
20260901143048 70 134 0.0 7.0 0.03 0.23 0.23 93 1017.2
20260901142532 70 134 2.0 7.0 0.03 0.23 0.23 93 1017.1
20260901142031 70 134 2.0 7.0 0.01 0.21 0.21 93 1017.2
20260901141549 70 0 0.0 6.0 0.00 0.20 0.20 93 1017.2
20260901141031 70 134 2.0 6.0 0.00 0.20 0.20 93 1017.1
20260901140532 70 134 1.0 6.0 0.00 0.20 0.20 93 1017.1
20260901140047 70 134 2.0 8.0 0.00 0.20 0.20 93 1017.0
20260901135531 70 134 3.0 8.0 0.00 0.20 0.20 93 1016.8
20260901135031 70 134 2.0 9.0 0.00 0.20 0.20 93 1016.8
20260901134547 70 134 2.0 9.0 0.00 0.20 0.20 93 1016.7
20260901134032 70 132 2.0 8.0 0.00 0.20 0.20 93 1016.7
20260901133530 70 132 3.0 8.0 0.00 0.20 0.20 93 1016.7
20260901133045 70 132 2.0 7.0 0.00 0.20 0.20 93 1016.7
20260901132533 69 132 2.0 7.0 0.00 0.20 0.20 93 1016.8
20260901132030 70 132 2.0 7.0 0.00 0.20 0.20 93 1016.8
20260901131548 70 0 1.0 4.0 0.00 0.20 0.20 93 1016.8
20260901131033 69 132 1.0 4.0 0.00 0.20 0.20 93 1017.0
20260901130531 69 132 1.0 6.0 0.00 0.20 0.20 94 1017.0
20260901130057 69 132 1.0 6.0 0.00 0.20 0.20 93 1017.0
20260901125530 69 132 1.0 6.0 0.00 0.20 0.20 93 1017.1
20260901125031 69 132 1.0 8.0 0.00 0.20 0.20 94 1017.1
20260901124546 69 132 2.0 8.0 0.00 0.20 0.20 93 1017.2
20260901124029 69 132 1.0 7.0 0.00 0.20 0.20 94 1017.2
20260901123531 69 132 1.0 7.0 0.00 0.20 0.20 93 1017.1
20260901123046 69 132 3.0 7.0 0.00 0.20 0.20 94 1017.1
20260901122531 69 0 2.0 6.0 0.00 0.20 0.20 93 1017.2
20260901122031 69 132 3.0 8.0 0.00 0.20 0.20 94 1017.1
20260901121548 69 132 3.0 8.0 0.00 0.20 0.20 94 1017.0
20260901121034 69 132 2.0 6.0 0.00 0.20 0.20 93 1017.1
20260901120532 69 0 1.0 6.0 0.00 0.20 0.20 93 1017.2
20260901120045 69 132 3.0 6.0 0.00 0.20 0.20 93 1017.2
20260901115532 68 132 1.0 6.0 0.00 0.20 0.20 93 1017.3
20260901115033 68 132 1.0 8.0 0.00 0.20 0.20 93 1017.3
20260901114608 68 132 2.0 8.0 0.00 0.20 0.20 93 1017.3
20260901114032 68 132 2.0 8.0 0.00 0.20 0.20 93 1017.2
20260901113531 68 132 2.0 8.0 0.00 0.20 0.20 93 1017.2
20260901113050 68 132 3.0 8.0 0.00 0.20 0.20 93 1017.1
20260901112535 68 132 2.0 6.0 0.00 0.20 0.20 93 1017.2
20260901112034 68 132 2.0 4.0 0.00 0.20 0.20 93 1017.2
20260901111550 68 132 2.0 7.0 0.00 0.20 0.20 93 1017.1
20260901111035 68 132 1.0 7.0 0.00 0.20 0.20 93 1017.2
20260901110533 68 132 2.0 7.0 0.00 0.20 0.20 93 1017.3
20260901110047 68 132 2.0 6.0 0.00 0.20 0.20 93 1017.2
20260901105534 68 132 2.0 6.0 0.00 0.20 0.20 93 1017.2
20260901105033 68 132 2.0 7.0 0.00 0.20 0.20 93 1017.2
20260901104550 68 132 2.0 7.0 0.01 0.20 0.20 93 1017.3
20260901104031 68 0 0.0 6.0 0.01 0.20 0.20 93 1017.2
20260901103532 68 132 1.0 6.0 0.01 0.20 0.20 93 1017.1
20260901103048 68 132 3.0 5.0 0.01 0.20 0.20 93 1016.9
20260901102535 68 132 1.0 4.0 0.02 0.20 0.20 93 1017.0
20260901102031 68 132 2.0 4.0 0.02 0.20 0.20 93 1017.1
20260901101550 68 0 1.0 3.0 0.02 0.20 0.20 93 1017.2
20260901101033 68 132 1.0 3.0 0.03 0.20 0.20 93 1017.1
20260901100533 68 132 1.0 3.0 0.03 0.20 0.20 93 1017.0
20260901100049 68 132 1.0 3.0 0.03 0.20 0.20 93 1017.0